Simultaneous Nadir Overpasses (SNOs) Predictions

Prediction of SNOs between METOP-B and TERRA Satellite Orbit:

Table of predicted SNOs for the next 14.0 days since TLE Epoch: 9/3/2022
Index Date (METOP-B) Time (METOP-B) Lat,Lon (METOP-B) SZA (METOP-B ) Date (TERRA) Time (TERRA) Lat,Lon (TERRA) SZA (TERRA ) Distance(km) Time Diff (sec)
1 09/03/2022 16:37:54 81.12, -30.44 75.75 09/03/2022 16:38:57 81.12, -30.33 75.79 1.93 63
2 09/03/2022 17:28:33 -81.14, 137.49 104.17 09/03/2022 17:28:23 -81.14, 137.61 104.16 2.15 10
3 09/06/2022 12:12:14 81.12, 36.08 76.83 09/06/2022 12:13:07 81.11, 36.07 76.84 0.71 53
4 09/06/2022 13:02:53 -81.14,-155.97 103.09 09/06/2022 13:02:33 -81.14,-155.96 103.10 0.57 20
5 09/09/2022 07:46:33 81.14, 102.95 77.96 09/09/2022 07:47:16 81.13, 102.76 77.95 3.32 43
6 09/09/2022 08:37:12 -81.16, -89.07 101.95 09/09/2022 08:36:42 -81.16, -89.24 101.98 2.94 30
7 09/12/2022 03:20:53 81.13, 169.04 79.01 09/12/2022 03:21:25 81.12, 169.02 79.01 0.70 32
8 09/12/2022 04:11:32 -81.15, -22.96 100.90 09/12/2022 04:10:51 -81.15, -22.96 100.92 0.28 41
9 09/14/2022 22:55:13 81.13,-124.53 80.11 09/14/2022 22:55:34 81.13,-124.43 80.12 1.59 21



Historial Predications of SNOs between METOP-B and TERRA
